Flag for U.S.A. Weather past 2 weeks in Clarksville, Tennessee, U.S.A.

Now
70 °F

Clear.


Feels Like: 68 °F
Forecast: 58 / 80 °F
Wind: 5 mph from Southwest

Location: Outlaw Field

Current Time: Sep 21, 2014 at 3:25:30 AM

Latest Report: Sep 21, 2014 at 2:52 AM


Visibility: 10 mi

Pressure: 29.94 "Hg

Humidity: 87%

Dew point: 66 °F

Location of ClarksvilleLocation

Historic Weather in Clarksville — Graph

°F

Clarksville temperature yesterday

Maximum temperature yesterday: 85 °F (at 1:52 PM)
Minimum temperature yesterday: 63 °F (at 3:03 AM)
Average temperature yesterday: 73 °F

Past Weeks' High & Low Weather Summary

 TemperatureHumidityPressure
High86 °F (Sep 9, 2:52 PM)100% (Sep 17, 8:52 AM)30.31 "Hg (Sep 17, 8:52 AM)
Low48 °F (Sep 17, 6:00 AM)41% (Sep 8, 4:52 PM)29.81 "Hg (Sep 10, 6:52 PM)
Average68 °F78%30.06 "Hg
* Reported Sep 6 1:52 AM — Sep 21 1:52 AM, Clarksville, Weather by CustomWeather, © 2014

Note: Actual official high and low records may vary slightly from our data, if they occured in-between our weather recording intervals... More about our weather records

Advertising

Clarksville weather history for previous 24 hours

 ConditionsComfort  
Time TempWeatherWind HumidityBarometerVisibility
1:52 AM
Sep 21
70 °FClear.7 mph87%29.95 "Hg10 mi
12:52 AM69 °FClear.3 mph87%29.97 "Hg10 mi
11:52 PM
Sep 20
70 °FClear.3 mph87%29.99 "Hg10 mi
10:52 PM71 °FClear.6 mph84%29.98 "Hg10 mi
9:52 PM73 °FClear.5 mph81%29.99 "Hg10 mi
8:52 PM73 °FClear.5 mph79%29.98 "Hg10 mi
7:52 PM76 °FClear.3 mph72%29.97 "Hg10 mi
6:52 PM79 °FClear.5 mph65%29.96 "Hg10 mi
5:52 PM83 °FSunny.6 mph57%29.96 "Hg10 mi
4:52 PM84 °FSunny.7 mph53%29.96 "Hg10 mi
3:52 PM85 °FSunny.7 mph53%29.99 "Hg10 mi
2:52 PM85 °FScattered clouds.10 mph53%30.00 "Hg10 mi
1:52 PM85 °FScattered clouds.12 mph55%30.02 "Hg10 mi
12:52 PM83 °FScattered clouds.9 mph59%30.05 "Hg10 mi
7:52 AM69 °FSunny.3 mph87%30.10 "Hg10 mi
6:52 AM63 °FFog.5 mph93%30.08 "Hg4 mi
5:52 AM64 °FFog.3 mph94%30.06 "Hg6 mi
4:52 AM66 °FClear.3 mph90%30.05 "Hg10 mi
3:52 AM64 °FPassing clouds.No wind94%30.03 "Hg7 mi
3:03 AM63 °FFog.No wind93%30.04 "Hg6 mi
Weather by CustomWeather, © 2014

See weather overviewHow to use our weather pages